CDT,Max TemperatureF,Mean TemperatureF,Min TemperatureF,Max Dew PointF,MeanDew PointF,Min DewpointF,Max Humidity, Mean Humidity, Min Humidity, Max Sea Level PressureIn, Mean Sea Level PressureIn, Min Sea Level PressureIn, Max VisibilityMiles, Mean VisibilityMiles, Min VisibilityMiles, Max Wind SpeedMPH, Mean Wind SpeedMPH, Max Gust SpeedMPH,PrecipitationIn, CloudCover, Events, WindDirDegrees
2012-10-1,74,61,47,51,45,40,86,59,31,30.20,30.05,29.93,10,10,9,39,16,47,0.00,1,,1
2012-10-2,80,61,41,47,41,37,83,52,21,30.09,29.97,29.83,10,9,4,18,8,23,0.00,0,,231
2012-10-3,88,66,44,50,46,39,93,56,18,29.92,29.79,29.71,10,9,3,20,10,24,0.00,0,,190
2012-10-4,67,56,44,49,34,28,70,52,33,30.26,30.14,29.80,10,9,2,47,18,56,0.00,3,,34
2012-10-5,59,49,39,39,35,28,79,63,47,30.24,30.16,30.08,10,10,10,24,11,31,0.00,4,,80
2012-10-6,44,40,35,36,32,28,92,75,57,30.33,30.26,30.20,10,8,2,18,8,22,0.00,8,,75
2012-10-7,50,41,32,30,28,24,82,62,42,30.34,30.24,30.12,10,10,10,16,8,21,0.00,4,,194
2012-10-8,68,47,25,35,29,22,92,56,19,30.18,30.01,29.85,10,10,7,22,11,26,0.00,0,,203
2012-10-9,83,61,39,39,28,14,71,40,8,30.13,29.90,29.80,10,10,9,23,13,30,0.00,0,,342
2012-10-10,69,52,34,45,38,30,89,62,34,30.27,30.14,30.02,10,10,10,22,11,26,0.00,0,,199
2012-10-11,85,65,44,52,46,41,93,59,25,30.13,29.99,29.90,10,9,6,22,11,25,0.00,0,,210
2012-10-12,69,57,45,61,47,34,93,76,58,30.26,30.06,29.86,10,10,5,33,15,45,0.01,4,Rain,114
2012-10-13,73,62,50,61,45,24,93,55,17,30.05,29.85,29.71,10,10,6,33,15,43,0.01,1,Rain-Thunderstorm,256
2012-10-14,75,61,47,41,37,33,71,47,23,30.24,30.11,29.94,10,10,5,17,7,20,0.00,0,,311
2012-10-15,83,61,38,39,33,28,79,47,14,30.14,29.96,29.76,10,8,2,31,14,39,0.00,0,,209
2012-10-16,81,61,40,36,31,26,79,47,14,29.84,29.67,29.46,10,10,9,24,11,31,0.00,0,,233
2012-10-17,70,57,44,37,29,23,54,36,17,29.88,29.69,29.41,10,10,8,28,12,35,0.00,0,,16
2012-10-18,66,52,37,27,22,18,64,41,18,30.10,30.01,29.90,10,10,10,16,7,21,0.00,0,,72
2012-10-19,76,56,35,31,26,23,70,42,14,30.08,29.95,29.77,10,10,10,17,8,23,0.00,0,,235
2012-10-20,84,59,33,31,26,20,75,43,10,29.83,29.72,29.62,10,10,5,14,7,16,0.00,0,,183
2012-10-21,87,64,41,33,26,19,49,30,10,29.75,29.66,29.60,10,10,5,23,11,28,0.00,0,,234
2012-10-22,83,63,43,42,32,23,55,34,12,29.83,29.75,29.68,10,10,9,17,8,22,0.00,0,,214
2012-10-23,90,69,47,32,27,18,48,28,7,29.85,29.71,29.64,10,10,6,36,16,44,0.00,0,,231
2012-10-24,85,66,47,38,31,27,45,29,13,29.87,29.66,29.54,10,10,10,32,17,40,0.00,0,,201
2012-10-25,61,48,34,45,31,25,71,51,30,30.29,30.03,29.56,10,10,6,36,18,43,0.00,3,,15
2012-10-26,46,37,27,26,24,22,72,59,45,30.46,30.38,30.28,10,10,10,14,7,18,0.00,4,,70
2012-10-27,59,41,22,23,18,16,88,54,19,30.37,30.22,30.08,10,10,9,21,8,28,0.00,0,,177
2012-10-28,64,46,27,21,19,17,69,43,17,30.22,30.14,30.04,10,10,10,25,11,31,0.00,0,,199
2012-10-29,71,50,29,29,25,19,69,44,18,30.17,30.08,30.01,10,10,8,13,8,16,0.00,0,,196
2012-10-30,78,59,39,28,26,22,59,36,13,30.12,30.02,29.96,10,10,9,13,5,15,0.00,0,,337
2012-10-31,79,59,38,36,29,25,70,42,13,30.16,30.05,29.97,10,8,2,18,7,23,0.00,0,,276